Location: Kitchener-Waterloo
(43.4500°N, 80.5000°W)
Time: 10:09:39
(UTC-04:00)

Amateur Radio Satellites - All Passes

Search period start: 26 July 2016 09:39
Search period end: 27 July 2016 09:39
Location: Kitchener-Waterloo, 43.4500°N, 80.5000°W

Satellite Date Start Highest point End Downlink Frequencies (MHz)
Time Altitude Azimuth
UWE-3 26 Jul 09:39:39 09:43:37 27° 94° (E) 09:47:29 435.000/436.395/437.385
SEEDS 26 Jul 09:40:48 09:45:00 80° 102° (ESE) 09:49:09 437.485
FUNcube-1 26 Jul 09:43:13 09:46:19 18° 91° (E) 09:49:21 145.935
ZACube-1 26 Jul 09:43:21 09:46:38 19° 92° (E) 09:49:51 437.345
COMPASS 1 26 Jul 09:54:47 09:58:56 80° 101° (E) 10:03:03 437.405
CUBEBUG 2 26 Jul 09:58:49 10:03:33 64° 101° (E) 10:08:08 437.445
Cosmos 2491 26 Jul 09:59:01 10:07:47 79° 265° (W) 10:16:33 435.465 / 435.565
DOVE 4 26 Jul 10:02:01 10:05:08 16° 298° (WNW) 10:08:17 437.250
TIGRISAT 26 Jul 10:04:03 10:08:01 29° 67° (ENE) 10:12:04 435.000
Cosmos 2504 26 Jul 10:07:03 10:12:26 18° 76° (ENE) 10:17:48 435.465 / 435.565
UNISAT 6 26 Jul 10:19:34 10:23:56 43° 71° (ENE) 10:28:23 437.425
CINEMA 3 26 Jul 10:21:08 10:25:24 28° 293° (WNW) 10:29:38 145.822/145.860
CANX-2 26 Jul 10:22:09 10:25:32 24° 293° (WNW) 10:28:54 2200.000
RS-15 26 Jul 10:22:31 10:33:19 40° 328° (NNW) 10:44:36 29.354- 29.394
AAUSAT CUBESAT 2 26 Jul 10:24:20 10:28:24 59° 286° (WNW) 10:32:26 437.432
M-CUBED/EXP-1 PRIME 26 Jul 10:25:55 10:28:56 17° 96° (E) 10:31:57 437.505
Oscar 11 26 Jul 10:26:25 10:30:41 55° 100° (E) 10:34:53 145.826/435.025
HO-68 26 Jul 10:30:31 10:37:22 49° 295° (WNW) 10:44:10 435.675
CUTE 1.7 + AOD 2 26 Jul 10:36:04 10:39:08 20° 294° (WNW) 10:42:11 437.475
POPSAT HIP 1 26 Jul 10:39:52 10:41:16 11° 60° (ENE) 10:42:40 437.405
AUBIESAT-1 26 Jul 10:52:22 10:56:13 25° 99° (E) 11:00:02 437.475
DELFI C3 26 Jul 10:56:25 11:00:16 51° 100° (E) 11:04:06 145.870
ANTELSAT 26 Jul 10:57:48 11:02:25 79° 257° (WSW) 11:07:09 437.575/2403.000
QB50P2 26 Jul 10:58:40 11:01:41 19° 65° (ENE) 11:04:43 145.880/145.840
POLYITAN 1 26 Jul 11:01:15 11:04:19 20° 65° (ENE) 11:07:24 437.675
SO-50 26 Jul 11:06:42 11:10:06 18° 323° (NW) 11:13:29 436.795
HUMSAT D 26 Jul 11:07:11 11:10:58 32° 96° (E) 11:14:42 437.325/437.525
UWE-3 26 Jul 11:15:58 11:20:03 32° 292° (WNW) 11:24:04 435.000/436.395/437.385
FUNcube-1 26 Jul 11:18:29 11:22:48 45° 289° (WNW) 11:26:59 145.935
ZACube-1 26 Jul 11:18:50 11:23:07 42° 289° (WNW) 11:27:17 437.345
SEEDS 26 Jul 11:19:17 11:20:03 10° 300° (WNW) 11:20:49 437.485
YUBILEINY 26 Jul 11:28:58 11:37:35 58° 284° (WNW) 11:46:18 435.215
COMPASS 1 26 Jul 11:33:17 11:33:51 10° 300° (WNW) 11:34:25 437.405
CUBEBUG 2 26 Jul 11:36:46 11:39:36 16° 298° (WNW) 11:42:25 437.445
TIGRISAT 26 Jul 11:40:32 11:44:37 31° 264° (W) 11:48:49 435.000
NANOSAT C BR1 26 Jul 11:44:11 11:48:17 50° 72° (ENE) 11:52:25 145.865
DUCHIFAT 1 26 Jul 11:48:59 11:53:04 53° 73° (ENE) 11:57:14 145.980
CUBEBUG 1 26 Jul 11:53:19 11:55:00 12° 89° (E) 11:56:41 437.445
Cosmos 2504 26 Jul 11:55:36 12:04:27 83° 96° (E) 12:13:20 435.465 / 435.565
JAS-2 26 Jul 11:56:54 12:01:56 29° 66° (ENE) 12:06:34 435.910
UNISAT 6 26 Jul 11:57:21 12:00:49 21° 268° (W) 12:04:21 437.425
Cosmos 2491 26 Jul 11:58:27 12:03:06 16° 285° (WNW) 12:07:47 435.465 / 435.565
M-CUBED/EXP-1 PRIME 26 Jul 11:59:07 12:03:44 60° 292° (WNW) 12:08:22 437.505
Oscar 11 26 Jul 12:03:51 12:06:22 15° 297° (WNW) 12:08:53 145.826/435.025
QB50P1 26 Jul 12:05:49 12:10:04 88° 256° (WSW) 12:14:22 145.935-145.965
BUGSAT 1 26 Jul 12:08:15 12:12:01 38° 70° (ENE) 12:15:52 437.445
POPSAT HIP 1 26 Jul 12:12:11 12:16:25 77° 258° (WSW) 12:20:43 437.405
HO-68 26 Jul 12:22:15 12:23:23 10° 316° (NW) 12:24:29 435.675
AUBIESAT-1 26 Jul 12:26:25 12:30:43 39° 295° (WNW) 12:35:00 437.475
AISAT 26 Jul 12:32:14 12:36:06 28° 96° (E) 12:39:57 437.250
DELFI C3 26 Jul 12:32:40 12:34:42 14° 297° (WNW) 12:36:45 145.870
QB50P2 26 Jul 12:33:10 12:37:11 41° 262° (W) 12:41:16 145.880/145.840
POLYITAN 1 26 Jul 12:35:49 12:39:50 40° 262° (W) 12:43:54 437.675
DX 1 26 Jul 12:35:58 12:39:20 21° 94° (E) 12:42:41 434.975-435.025
50 SAT 26 Jul 12:36:13 12:39:22 28° 97° (E) 12:42:29 437.505
RS-15 26 Jul 12:40:43 12:50:27 27° 2° (N) 13:00:23 29.354- 29.394
HUMSAT D 26 Jul 12:43:06 12:46:26 23° 293° (WNW) 12:49:43 437.325/437.525
UKube-1 26 Jul 12:51:26 12:55:00 24° 95° (E) 12:58:32 .
ESTCUBE 1 26 Jul 13:02:33 13:07:03 84° 286° (WNW) 13:11:33 437.505/2401.250
Gurwin Techsat 1B 26 Jul 13:13:57 13:17:32 19° 60° (ENE) 13:21:09 435.225
AO-7 26 Jul 13:16:37 13:18:16 11° 37° (NE) 13:19:55 29.400- 29.500
NANOSAT C BR1 26 Jul 13:21:52 13:24:18 15° 269° (W) 13:26:46 145.865
AO-85 26 Jul 13:22:01 13:23:51 12° 106° (ESE) 13:25:41 145.980
VELOX 1 26 Jul 13:23:27 13:27:55 87° 283° (WNW) 13:32:22 145.980
SPROUT 26 Jul 13:26:16 13:30:29 49° 99° (E) 13:34:40 437.525
DUCHIFAT 1 26 Jul 13:26:51 13:29:07 14° 269° (W) 13:31:23 145.980
CUBEBUG 1 26 Jul 13:27:21 13:31:43 67° 286° (WNW) 13:36:06 437.445
YUBILEINY 26 Jul 13:33:31 13:36:42 12° 308° (NW) 13:39:54 435.215
ITAMSAT 1 26 Jul 13:37:21 13:37:58 10° 54° (NE) 13:38:34 435.822/435.867
Oscar 19 26 Jul 13:39:08 13:44:10 62° 72° (ENE) 13:49:14 437.125/150
JAS-2 26 Jul 13:41:09 13:46:54 42° 261° (W) 13:52:08 435.910
BUGSAT 1 26 Jul 13:44:41 13:47:33 18° 267° (W) 13:50:28 437.445
Cosmos 2504 26 Jul 13:52:02 13:58:53 24° 297° (WNW) 14:05:44 435.465 / 435.565
AIST 1 26 Jul 14:01:51 14:05:59 55° 94° (E) 14:10:10
AISAT 26 Jul 14:08:41 14:12:32 29° 292° (WNW) 14:16:22 437.250
50 SAT 26 Jul 14:10:13 14:12:50 19° 293° (WNW) 14:15:26 437.505
DX 1 26 Jul 14:11:36 14:15:38 37° 291° (WNW) 14:19:39 434.975-435.025
TISAT 1 26 Jul 14:25:14 14:29:24 51° 100° (E) 14:33:32 437.305
UKube-1 26 Jul 14:27:13 14:31:04 32° 292° (WNW) 14:34:54 .
ITUPSAT 1 26 Jul 14:43:01 14:45:50 15° 91° (E) 14:48:37 437.325
Gurwin Techsat 1B 26 Jul 14:51:41 14:56:58 66° 259° (WSW) 15:02:17 435.225
RS-15 26 Jul 14:55:53 15:07:25 43° 35° (NE) 15:18:56 29.354- 29.394
AO-85 26 Jul 14:58:14 15:03:37 80° 123° (ESE) 15:08:47 145.980
AO-7 26 Jul 15:01:08 15:08:48 42° 60° (ENE) 15:16:29 29.400- 29.500
Cosmos 2499 26 Jul 15:01:24 15:07:18 20° 78° (ENE) 15:13:06 435.465 / 435.565
VELOX 1 26 Jul 15:03:15 15:03:39 10° 302° (WNW) 15:04:04 145.980
SPROUT 26 Jul 15:03:15 15:06:03 17° 296° (WNW) 15:08:51 437.525
ITAMSAT 1 26 Jul 15:11:16 15:16:28 68° 73° (ENE) 15:21:40 435.822/435.867
Oscar 19 26 Jul 15:20:42 15:23:55 17° 269° (W) 15:27:10 437.125/150
CUSAT 1 26 Jul 15:33:15 15:36:09 89° 255° (WSW) 15:39:42 437.405
SWISSCUBE 26 Jul 15:35:16 15:39:59 57° 101° (E) 15:44:39 437.505
GONETS M04 26 Jul 15:37:00 15:45:05 46° 88° (E) 15:53:14
AIST 1 26 Jul 15:41:51 15:43:59 13° 292° (WNW) 15:46:06
DANDE 26 Jul 15:48:25 15:50:44 28° 76° (ENE) 15:53:10 436.750
BEESAT 26 Jul 15:56:42 16:01:31 85° 104° (ESE) 16:06:16 436.000
TISAT 1 26 Jul 16:02:00 16:04:38 16° 297° (WNW) 16:07:16 437.305
SO-50 26 Jul 16:15:07 16:18:22 18° 37° (NE) 16:21:32 436.795
KKS-1 26 Jul 16:17:48 16:20:46 17° 92° (E) 16:23:43 437.445
ITUPSAT 1 26 Jul 16:19:21 16:24:04 60° 288° (WNW) 16:28:44 437.325
HORYU 2 26 Jul 16:40:26 16:44:18 29° 67° (ENE) 16:48:11 437.375
AO-85 26 Jul 16:40:42 16:44:39 21° 320° (NW) 16:48:29 145.980
MOZHAYETS 4 26 Jul 16:45:12 16:49:25 36° 97° (E) 16:53:37
Cosmos 2499 26 Jul 16:50:22 16:59:17 90° 280° (W) 17:08:01 435.465 / 435.565
ITAMSAT 1 26 Jul 16:53:19 16:56:25 16° 270° (W) 16:59:32 435.822/435.867
AO-7 26 Jul 16:53:24 17:01:25 49° 259° (W) 17:09:30 29.400- 29.500
STARS 26 Jul 16:58:19 17:01:51 23° 94° (E) 17:05:21 437.465
RS-15 26 Jul 17:08:46 17:21:06 76° 242° (WSW) 17:33:14 29.354- 29.394
NOAA 15 26 Jul 17:09:02 17:12:14 17° 59° (ENE) 17:15:25 137.62
SWISSCUBE 26 Jul 17:14:12 17:17:19 18° 298° (WNW) 17:20:26 437.505
NOAA 18 26 Jul 17:15:32 17:18:47 16° 57° (ENE) 17:22:02 137.9125
GONETS M04 26 Jul 17:33:53 17:41:58 42° 289° (WNW) 17:50:07
BEESAT 26 Jul 17:36:36 17:38:36 13° 302° (WNW) 17:40:35 436.000
KKS-1 26 Jul 17:53:15 17:57:35 48° 289° (WNW) 18:01:54 437.445
SO-50 26 Jul 17:54:47 17:59:27 80° 237° (WSW) 18:03:57 436.795
GOMX 1 26 Jul 17:57:04 17:59:58 18° 64° (ENE) 18:02:57 467.674
Cubesat XI-IV 26 Jul 18:00:10 18:04:57 34° 66° (ENE) 18:09:46 437.490
CUBESAT XI-V 26 Jul 18:02:30 18:06:32 29° 96° (E) 18:10:32 437.345
PHONESAT 2.4 26 Jul 18:04:43 18:07:00 19° 157° (SSE) 18:09:18 2401.200-2431.200
HORYU 2 26 Jul 18:16:54 18:20:48 29° 264° (W) 18:24:44 437.375
MOZHAYETS 4 26 Jul 18:22:44 18:26:24 24° 294° (WNW) 18:30:04
CUTE-I 26 Jul 18:23:33 18:28:46 54° 70° (ENE) 18:34:01 437.470
BRITE-PL 26 Jul 18:27:44 18:31:53 87° 77° (ENE) 18:36:05 437.365/2234.400
STARS 26 Jul 18:34:12 18:38:17 36° 291° (WNW) 18:42:20 437.465
LilacSat-2 26 Jul 18:42:19 18:46:11 74° 76° (ENE) 18:50:05 437.200
NOAA 15 26 Jul 18:46:09 18:51:24 74° 257° (WSW) 18:56:40 137.62
Cosmos 2499 26 Jul 18:47:11 18:53:35 22° 298° (WNW) 18:59:54 435.465 / 435.565
NOAA 18 26 Jul 18:53:10 18:58:42 83° 254° (WSW) 19:04:19 137.9125
BEESAT 3 26 Jul 19:08:11 19:11:50 38° 117° (ESE) 19:15:31 437.485
HO-68 26 Jul 19:13:14 19:19:18 31° 59° (ENE) 19:25:24 435.675
BEESAT 2 26 Jul 19:13:26 19:16:37 24° 114° (ESE) 19:19:49 435.950
STRAND 1 26 Jul 19:16:36 19:17:46 11° 87° (E) 19:18:55 437.568
RS-15 26 Jul 19:23:43 19:31:26 20° 263° (W) 19:39:06 29.354- 29.394
DOVE 4 26 Jul 19:29:44 19:33:59 78° 76° (ENE) 19:38:31 437.250
GOMX 1 26 Jul 19:33:50 19:37:46 41° 262° (W) 19:41:51 467.674
CUBESAT XI-V 26 Jul 19:39:52 19:43:52 30° 292° (WNW) 19:47:51 437.345
CANX-2 26 Jul 19:39:56 19:43:31 27° 68° (ENE) 19:47:07 2200.000
Cubesat XI-IV 26 Jul 19:40:08 19:44:59 34° 264° (W) 19:49:52 437.490
PHONESAT 2.4 26 Jul 19:40:10 19:43:08 44° 173° (S) 19:46:06 2401.200-2431.200
YUBILEINY 26 Jul 19:42:26 19:47:54 17° 58° (ENE) 19:53:20 435.215
PCSat 26 Jul 19:42:36 19:47:32 37° 111° (ESE) 19:52:29 145.827
AAUSAT CUBESAT 2 26 Jul 19:43:49 19:44:26 10° 61° (ENE) 19:45:04 437.432
CINEMA 3 26 Jul 19:46:27 19:50:34 35° 69° (ENE) 19:54:52 145.822/145.860
CUTE 1.7 + AOD 2 26 Jul 19:53:15 19:57:03 32° 70° (ENE) 20:00:51 437.475
CUTE-I 26 Jul 20:05:08 20:09:08 21° 268° (W) 20:13:08 437.470
O/OREOS (USA 219) 26 Jul 20:14:23 20:15:40 11° 97° (E) 20:16:58 437.305
SEEDS 26 Jul 20:33:11 20:37:21 62° 74° (ENE) 20:41:33 437.485
UWE-3 26 Jul 20:37:32 20:41:21 26° 67° (ENE) 20:45:13 435.000/436.395/437.385
NOAA 18 26 Jul 20:38:38 20:40:11 11° 273° (W) 20:41:43 137.9125
FUNcube-1 26 Jul 20:39:54 20:42:57 18° 63° (ENE) 20:46:01 145.935
ZACube-1 26 Jul 20:40:17 20:43:30 19° 64° (ENE) 20:46:44 437.345
COMPASS 1 26 Jul 20:46:13 20:50:20 60° 75° (ENE) 20:54:27 437.405
BEESAT 3 26 Jul 20:46:27 20:49:38 23° 316° (NW) 20:52:50 437.485
BEESAT 2 26 Jul 20:50:39 20:54:17 34° 311° (NW) 20:57:58 435.950
STRAND 1 26 Jul 20:52:30 20:57:39 89° 104° (ESE) 21:02:45 437.568
CUBEBUG 2 26 Jul 20:57:27 21:01:57 59° 73° (ENE) 21:06:36 437.445
HO-68 26 Jul 20:59:35 21:06:37 58° 258° (WSW) 21:13:44 435.675
Cosmos 2491 26 Jul 21:07:10 21:13:50 25° 80° (E) 21:20:28 435.465 / 435.565
AIST 2 26 Jul 21:08:58 21:11:58 20° 112° (ESE) 21:14:59 435.215
M-CUBED/EXP-1 PRIME 26 Jul 21:13:28 21:16:22 21° 59° (ENE) 21:19:27 437.505
AAUSAT CUBESAT 2 26 Jul 21:15:07 21:19:17 81° 259° (W) 21:23:27 437.432
PRISM 26 Jul 21:15:11 21:18:15 20° 94° (E) 21:21:18 437.425
CANX-2 26 Jul 21:15:35 21:19:18 28° 265° (W) 21:23:01 2200.000
PHONESAT 2.4 26 Jul 21:16:29 21:19:25 40° 189° (S) 21:22:20 2401.200-2431.200
Oscar 11 26 Jul 21:21:57 21:26:08 48° 72° (ENE) 21:30:21 145.826/435.025
CINEMA 3 26 Jul 21:24:06 21:27:47 24° 267° (W) 21:31:38 145.822/145.860
PCSat 26 Jul 21:25:55 21:30:54 36° 310° (NW) 21:35:56 145.827
CUTE 1.7 + AOD 2 26 Jul 21:29:28 21:32:54 23° 266° (W) 21:36:22 437.475
ISS 26 Jul 21:30:49 21:33:06 18° 134° (SE) 21:35:24 145.825
YUBILEINY 26 Jul 21:37:28 21:46:23 77° 80° (E) 21:55:11 435.215
AUBIESAT-1 26 Jul 21:39:26 21:42:52 32° 63° (ENE) 21:46:33 437.475
DELFI C3 26 Jul 21:43:19 21:46:55 34° 71° (ENE) 21:50:32 145.870
Cosmos 2504 26 Jul 21:48:14 21:55:29 32° 68° (ENE) 22:02:14 435.465 / 435.565
O/OREOS (USA 219) 26 Jul 21:49:57 21:54:25 73° 295° (WNW) 21:58:54 437.305
AO-85 26 Jul 21:50:16 21:52:59 15° 34° (NE) 21:55:34 145.980
HUMSAT D 26 Jul 21:59:24 22:03:03 27° 68° (ENE) 22:06:42 437.325/437.525
SEEDS 26 Jul 22:11:48 22:13:27 12° 271° (W) 22:15:07 437.485
UWE-3 26 Jul 22:13:30 22:17:39 34° 264° (W) 22:21:54 435.000/436.395/437.385
FUNcube-1 26 Jul 22:14:22 22:18:46 52° 261° (W) 22:23:16 145.935
ZACube-1 26 Jul 22:15:02 22:19:24 48° 261° (W) 22:23:52 437.345
COMPASS 1 26 Jul 22:24:37 22:26:17 12° 270° (W) 22:27:56 437.405
ESTCUBE 1 26 Jul 22:29:34 22:31:12 12° 60° (ENE) 22:32:50 437.505/2401.250
STRAND 1 26 Jul 22:33:44 22:36:04 13° 302° (WNW) 22:38:24 437.568
CUBEBUG 2 26 Jul 22:36:19 22:38:59 15° 271° (W) 22:41:42 437.445
AIST 2 26 Jul 22:46:14 22:50:09 43° 310° (NW) 22:54:08 435.215
M-CUBED/EXP-1 PRIME 26 Jul 22:47:13 22:50:39 34° 258° (WSW) 22:54:23 437.505
VELOX 1 26 Jul 22:49:07 22:50:11 11° 59° (ENE) 22:51:14 145.980
ANTELSAT 26 Jul 22:49:16 22:52:45 21° 92° (E) 22:56:11 437.575/2403.000
PRISM 26 Jul 22:49:55 22:53:39 34° 290° (WNW) 22:57:22 437.425
CUBEBUG 1 26 Jul 22:50:54 22:52:42 12° 61° (ENE) 22:54:30 437.445
PHONESAT 2.4 26 Jul 22:53:29 22:55:29 16° 206° (SSW) 22:57:27 2401.200-2431.200
Oscar 11 26 Jul 22:59:49 23:02:32 16° 269° (W) 23:05:16 145.826/435.025
Cosmos 2491 26 Jul 23:01:06 23:09:47 72° 280° (W) 23:18:31 435.465 / 435.565
ISS 26 Jul 23:06:01 23:09:15 61° 331° (NNW) 23:12:29 145.825
AUBIESAT-1 26 Jul 23:14:25 23:17:25 22° 262° (W) 23:20:36 437.475
50 SAT 26 Jul 23:15:35 23:17:58 17° 66° (ENE) 23:20:20 437.505
DELFI C3 26 Jul 23:19:00 23:21:52 19° 267° (W) 23:24:44 145.870
AO-85 26 Jul 23:29:44 23:34:11 90° 49° (NE) 23:38:16 145.980
TIGRISAT 26 Jul 23:30:22 23:34:55 51° 99° (E) 23:39:21 435.000
AISAT 26 Jul 23:30:44 23:34:31 29° 68° (ENE) 23:38:20 437.250
DX 1 26 Jul 23:32:44 23:36:04 22° 65° (ENE) 23:39:25 434.975-435.025
HUMSAT D 26 Jul 23:34:52 23:38:35 28° 264° (W) 23:42:21 437.325/437.525
YUBILEINY 26 Jul 23:35:41 23:42:10 24° 281° (W) 23:48:39 435.215
Cosmos 2504 26 Jul 23:41:21 23:49:16 54° 270° (W) 23:56:37 435.465 / 435.565
UNISAT 6 26 Jul 23:46:30 23:51:12 81° 103° (ESE) 23:55:45 437.425
UKube-1 26 Jul 23:47:08 23:50:38 25° 66° (ENE) 23:54:09 .
QB50P1 26 Jul 23:50:56 23:53:12 14° 90° (E) 23:55:28 145.935-145.965
POPSAT HIP 1 26 Jul 23:56:58 23:59:40 16° 91° (E) 00:02:20 437.405
ESTCUBE 1 27 Jul 00:02:51 00:07:21 81° 255° (WSW) 00:11:52 437.505/2401.250
AIST 1 27 Jul 00:08:28 00:11:14 16° 69° (ENE) 00:13:58
QB50P2 27 Jul 00:16:59 00:20:43 28° 96° (E) 00:24:25 145.880/145.840
POLYITAN 1 27 Jul 00:19:36 00:23:22 29° 96° (E) 00:27:06 437.675
SPROUT 27 Jul 00:20:44 00:24:46 42° 71° (ENE) 00:28:50 437.525
VELOX 1 27 Jul 00:21:34 00:25:57 86° 256° (WSW) 00:30:22 145.980
CUBEBUG 1 27 Jul 00:24:07 00:28:24 71° 258° (WSW) 00:32:44 437.445
ANTELSAT 27 Jul 00:25:16 00:29:39 42° 290° (WNW) 00:33:56 437.575/2403.000
ISS 27 Jul 00:43:34 00:46:08 21° 350° (N) 00:48:44 145.825
50 SAT 27 Jul 00:47:57 00:51:20 34° 262° (W) 00:54:43 437.505
JAS-2 27 Jul 00:48:36 00:52:30 20° 93° (E) 00:56:34 435.910
NANOSAT C BR1 27 Jul 01:02:50 01:07:08 81° 102° (ESE) 01:11:24 145.865
Cosmos 2491 27 Jul 01:03:37 01:08:26 16° 304° (NW) 01:13:16 435.465 / 435.565
AISAT 27 Jul 01:07:13 01:10:57 27° 264° (W) 01:14:43 437.250
DUCHIFAT 1 27 Jul 01:07:20 01:11:38 85° 104° (ESE) 01:15:53 145.980
TIGRISAT 27 Jul 01:08:01 01:11:12 18° 297° (WNW) 01:14:19 435.000
DX 1 27 Jul 01:08:03 01:12:03 36° 262° (W) 01:16:04 434.975-435.025
TISAT 1 27 Jul 01:17:46 01:21:44 43° 71° (ENE) 01:25:45 437.305
UKube-1 27 Jul 01:22:41 01:26:32 32° 263° (W) 01:30:25 .
BUGSAT 1 27 Jul 01:23:40 01:27:52 57° 100° (E) 01:32:03 437.445
QB50P1 27 Jul 01:25:06 01:29:19 55° 287° (WNW) 01:33:29 145.935-145.965
UNISAT 6 27 Jul 01:25:15 01:27:12 13° 301° (WNW) 01:29:09 437.425
BEESAT 27 Jul 01:29:07 01:31:37 14° 60° (ENE) 01:34:06 436.000
POPSAT HIP 1 27 Jul 01:31:34 01:35:43 47° 288° (WNW) 01:39:49 437.405
AIST 1 27 Jul 01:44:55 01:49:05 46° 267° (W) 01:53:16
GONETS M04 27 Jul 01:45:47 01:52:40 25° 63° (ENE) 01:59:31
Oscar 19 27 Jul 01:50:17 01:54:03 20° 92° (E) 01:57:47 437.125/150
ITUPSAT 1 27 Jul 01:50:36 01:54:15 22° 64° (ENE) 01:57:54 437.325
QB50P2 27 Jul 01:52:48 01:56:27 27° 292° (WNW) 02:00:03 145.880/145.840
POLYITAN 1 27 Jul 01:55:28 01:59:06 27° 292° (WNW) 02:02:41 437.675
SPROUT 27 Jul 01:58:00 02:00:55 18° 268° (W) 02:03:51 437.525
ISS 27 Jul 02:20:46 02:23:22 21° 10° (N) 02:25:58 145.825
JAS-2 27 Jul 02:32:46 02:37:53 53° 289° (WNW) 02:43:23 435.910
NANOSAT C BR1 27 Jul 02:41:04 02:42:13 11° 300° (WNW) 02:43:21 145.865
Cosmos 2499 27 Jul 02:41:40 02:48:46 34° 69° (ENE) 02:55:21 435.465 / 435.565
SWISSCUBE 27 Jul 02:42:34 02:47:21 76° 74° (ENE) 02:52:09 437.505
DUCHIFAT 1 27 Jul 02:45:52 02:46:39 10° 300° (WNW) 02:47:25 145.980
TISAT 1 27 Jul 02:54:50 02:57:36 17° 268° (W) 03:00:24 437.305
BUGSAT 1 27 Jul 03:00:23 03:02:47 15° 297° (WNW) 03:05:11 437.445
BEESAT 27 Jul 03:04:00 03:08:47 75° 258° (WSW) 03:13:36 436.000
Gurwin Techsat 1B 27 Jul 03:06:44 03:11:51 45° 99° (E) 03:16:56 435.225
KKS-1 27 Jul 03:17:05 03:20:13 19° 63° (ENE) 03:23:22 437.445
ITAMSAT 1 27 Jul 03:23:45 03:27:43 22° 93° (E) 03:31:38 435.822/435.867
BEESAT 3 27 Jul 03:24:10 03:27:51 34° 49° (NE) 03:31:29 437.485
ITUPSAT 1 27 Jul 03:27:11 03:31:47 45° 261° (W) 03:36:25 437.325
Oscar 19 27 Jul 03:28:39 03:33:41 53° 289° (WNW) 03:38:42 437.125/150
BEESAT 2 27 Jul 03:29:50 03:33:09 24° 45° (NE) 03:36:26 435.950
GONETS M04 27 Jul 03:41:41 03:50:30 79° 265° (W) 03:59:19
MOZHAYETS 4 27 Jul 03:47:55 03:52:14 39° 70° (ENE) 03:56:32
STARS 27 Jul 03:56:07 03:59:37 24° 66° (ENE) 04:03:09 437.465
ISS 27 Jul 03:57:00 04:00:15 64° 29° (NNE) 04:03:29 145.825
SWISSCUBE 27 Jul 04:23:45 04:25:40 12° 271° (W) 04:27:37 437.505
PCSat 27 Jul 04:28:54 04:34:01 40° 51° (NE) 04:39:06 145.827
Cosmos 2499 27 Jul 04:34:38 04:42:07 48° 271° (W) 04:49:03 435.465 / 435.565
CUSAT 1 27 Jul 04:37:47 04:41:58 85° 280° (W) 04:45:13 437.405
Gurwin Techsat 1B 27 Jul 04:47:13 04:51:32 26° 296° (WNW) 04:55:49 435.225
KKS-1 27 Jul 04:52:12 04:56:27 45° 261° (W) 05:00:45 437.445
AO-7 27 Jul 04:53:12 05:01:24 55° 103° (ESE) 05:09:30 29.400- 29.500
DANDE 27 Jul 04:56:40 05:02:13 56° 98° (E) 05:06:22 436.750
BEESAT 3 27 Jul 05:02:11 05:05:22 23° 246° (WSW) 05:08:32 437.485
ITAMSAT 1 27 Jul 05:02:26 05:07:26 49° 290° (WNW) 05:12:24 435.822/435.867
CUBESAT XI-V 27 Jul 05:06:50 05:10:56 33° 69° (ENE) 05:15:03 437.345
BEESAT 2 27 Jul 05:07:22 05:11:05 37° 243° (WSW) 05:14:47 435.950
MOZHAYETS 4 27 Jul 05:25:55 05:29:32 22° 267° (W) 05:33:08
AIST 2 27 Jul 05:28:20 05:31:41 22° 43° (NE) 05:35:00 435.215
RS-15 27 Jul 05:28:23 05:33:43 14° 93° (E) 05:39:07 29.354- 29.394
STARS 27 Jul 05:31:48 05:35:48 34° 263° (W) 05:39:51 437.465
ISS 27 Jul 05:34:09 05:36:22 17° 226° (SW) 05:38:35 145.825
GONETS M04 27 Jul 05:41:05 05:45:47 16° 285° (WNW) 05:50:30
HORYU 2 27 Jul 06:05:57 06:10:17 47° 100° (E) 06:14:35 437.375
PCSat 27 Jul 06:12:30 06:17:18 33° 250° (WSW) 06:22:05 145.827
Cubesat XI-IV 27 Jul 06:18:25 06:20:02 11° 87° (E) 06:21:39 437.490
O/OREOS (USA 219) 27 Jul 06:19:49 06:23:47 29° 58° (ENE) 06:27:44 437.305
BRITE-PL 27 Jul 06:30:21 06:34:26 27° 95° (E) 06:38:45 437.365/2234.400
STRAND 1 27 Jul 06:32:13 06:35:52 20° 62° (ENE) 06:39:32 437.568
CUTE-I 27 Jul 06:40:21 06:44:07 19° 91° (E) 06:47:52 437.470
DANDE 27 Jul 06:42:00 06:44:57 15° 287° (WNW) 06:47:31 436.750
CUBESAT XI-V 27 Jul 06:44:27 06:48:20 26° 265° (W) 06:52:14 437.345
AO-7 27 Jul 06:46:25 06:53:52 38° 302° (WNW) 07:01:17 29.400- 29.500
NOAA 15 27 Jul 07:00:14 07:05:07 38° 98° (E) 07:10:00 137.62
AIST 2 27 Jul 07:06:22 07:10:22 45° 242° (WSW) 07:14:21 435.215
NOAA 18 27 Jul 07:14:18 07:19:28 38° 98° (E) 07:24:33 137.9125
Cosmos 2491 27 Jul 07:15:52 07:19:41 13° 54° (NE) 07:23:28 435.465 / 435.565
DOVE 4 27 Jul 07:27:17 07:31:20 23° 93° (E) 07:35:27 437.250
RS-15 27 Jul 07:32:15 07:43:30 67° 116° (ESE) 07:55:24 29.354- 29.394
GOMX 1 27 Jul 07:32:53 07:37:48 51° 99° (E) 07:42:59 467.674
HORYU 2 27 Jul 07:43:22 07:46:29 19° 297° (WNW) 07:49:35 437.375
LilacSat-2 27 Jul 07:48:45 07:52:40 85° 279° (W) 07:56:30 437.200
Cubesat XI-IV 27 Jul 07:55:27 08:00:51 88° 109° (ESE) 08:06:12 437.490
O/OREOS (USA 219) 27 Jul 07:59:10 08:03:09 31° 256° (WSW) 08:07:09 437.305
PRISM 27 Jul 08:06:09 08:08:55 18° 64° (ENE) 08:11:41 437.425
BRITE-PL 27 Jul 08:08:33 08:12:57 37° 289° (WNW) 08:17:39 437.365/2234.400
STRAND 1 27 Jul 08:09:33 08:14:37 58° 259° (W) 08:19:42 437.568
SO-50 27 Jul 08:10:14 08:14:16 26° 113° (ESE) 08:18:18 436.795
CUTE-I 27 Jul 08:19:17 08:24:32 58° 289° (WNW) 08:29:44 437.470
HO-68 27 Jul 08:26:29 08:32:24 27° 93° (E) 08:38:16 435.675
NOAA 15 27 Jul 08:40:15 08:44:46 30° 295° (WNW) 08:49:17 137.62
YUBILEINY 27 Jul 08:47:20 08:52:33 18° 75° (ENE) 08:57:47 435.215
CUBEBUG 2 27 Jul 08:49:17 08:51:14 12° 88° (E) 08:53:09 437.445
NOAA 18 27 Jul 08:55:08 09:00:01 32° 295° (WNW) 09:04:51 137.9125
AAUSAT CUBESAT 2 27 Jul 08:57:39 08:59:54 14° 91° (E) 09:02:07 437.432
CANX-2 27 Jul 08:58:49 09:02:52 43° 98° (E) 09:06:52 2200.000
DOVE 4 27 Jul 09:04:16 09:09:11 48° 288° (WNW) 09:14:15 437.250
Cosmos 2491 27 Jul 09:09:56 09:18:37 62° 77° (ENE) 09:27:18 435.465 / 435.565
GOMX 1 27 Jul 09:11:45 09:15:35 22° 295° (WNW) 09:19:33 467.674
CUTE 1.7 + AOD 2 27 Jul 09:12:12 09:16:21 53° 100° (E) 09:20:27 437.475
UNISAT 6 27 Jul 09:14:11 09:14:35 10° 58° (ENE) 09:14:59 437.425
CINEMA 3 27 Jul 09:16:11 09:21:15 76° 102° (ESE) 09:26:14 145.822/145.860
